contact:dominique.lefevre@mio.osupytheas.fr, maurice.libes@osupytheas.fr, didier.mallarino@osupytheas.fr
Project:EMSO http://www.emso-fr.org/EMSO-France
Depth: 2436.0 m
Title:EMSO Ligure Ouest : Data MII capteur MICROCAT
DateTime_Computer,Latitude,Longitude,Temperature,Conductivity,Pressure,DateTime_Instrument
DateTime_Computer,Latitude,Longitude,degC,S m-1,dbar,DateTime_Instrument
2019-06-01T00:02:34Z,42.805,6.029,13.2961,4.59970,2469.643,2019-6-01T02:02:49Z
2019-06-01T00:05:37Z,42.805,6.029,13.2962,4.59968,2469.68,2019-6-01T02:05:52Z
2019-06-01T00:08:40Z,42.805,6.029,13.2957,4.59962,2469.69,2019-6-01T02:08:55Z
2019-06-01T00:11:43Z,42.805,6.029,13.2956,4.59966,2469.634,2019-6-01T02:11:58Z
2019-06-01T00:14:46Z,42.805,6.029,13.2960,4.59964,2469.69,2019-6-01T02:15:01Z
2019-06-01T00:17:49Z,42.805,6.029,13.2957,4.59960,2469.667,2019-6-01T02:18:04Z
2019-06-01T00:20:52Z,42.805,6.029,13.2962,4.59971,2469.68,2019-6-01T02:21:07Z
2019-06-01T00:23:55Z,42.805,6.029,13.2959,4.59964,2469.643,2019-6-01T02:24:10Z
2019-06-01T00:26:57Z,42.805,6.029,13.2958,4.59970,2469.667,2019-6-01T02:27:12Z
2019-06-01T00:30:00Z,42.805,6.029,13.2962,4.59964,2469.68,2019-6-01T02:30:15Z
2019-06-01T00:33:03Z,42.805,6.029,13.2958,4.59974,2469.667,2019-6-01T02:33:18Z
2019-06-01T00:36:06Z,42.805,6.029,13.2961,4.59964,2469.667,2019-6-01T02:36:21Z
2019-06-01T00:39:09Z,42.805,6.029,13.2959,4.59968,2469.667,2019-6-01T02:39:24Z
2019-06-01T00:42:12Z,42.805,6.029,13.2959,4.59966,2469.643,2019-6-01T02:42:27Z
2019-06-01T00:45:15Z,42.805,6.029,13.2952,4.59967,2469.69,2019-6-01T02:45:30Z
2019-06-01T00:48:18Z,42.805,6.029,13.2955,4.59962,2469.68,2019-6-01T02:48:33Z
2019-06-01T00:51:21Z,42.805,6.029,13.2957,4.59966,2469.68,2019-6-01T02:51:36Z
2019-06-01T00:54:24Z,42.805,6.029,13.2953,4.59968,2469.643,2019-6-01T02:54:39Z
2019-06-01T00:57:27Z,42.805,6.029,13.2963,4.59966,2469.667,2019-6-01T02:57:42Z
2019-06-01T01:00:30Z,42.805,6.029,13.2955,4.59964,2469.667,2019-6-01T03:00:45Z
2019-06-01T01:03:33Z,42.805,6.029,13.2961,4.59971,2469.643,2019-6-01T03:03:48Z
2019-06-01T01:06:36Z,42.805,6.029,13.2958,4.59967,2469.667,2019-6-01T03:06:51Z
2019-06-01T01:09:39Z,42.805,6.029,13.2961,4.59974,2469.643,2019-6-01T03:09:54Z
2019-06-01T01:12:42Z,42.805,6.029,13.2959,4.59966,2469.68,2019-6-01T03:12:57Z
2019-06-01T01:15:45Z,42.805,6.029,13.2960,4.59973,2469.667,2019-6-01T03:16:00Z
2019-06-01T01:18:47Z,42.805,6.029,13.2958,4.59976,2469.657,2019-6-01T03:19:03Z
2019-06-01T01:21:50Z,42.805,6.029,13.2956,4.59960,2469.69,2019-6-01T03:22:05Z
2019-06-01T01:24:53Z,42.805,6.029,13.2961,4.59962,2469.704,2019-6-01T03:25:08Z
2019-06-01T01:27:56Z,42.805,6.029,13.2958,4.59962,2469.667,2019-6-01T03:28:11Z
2019-06-01T01:30:59Z,42.805,6.029,13.2966,4.59975,2469.667,2019-6-01T03:31:14Z
2019-06-01T01:34:02Z,42.805,6.029,13.2964,4.59973,2469.667,2019-6-01T03:34:17Z
2019-06-01T01:37:05Z,42.805,6.029,13.2960,4.59966,2469.667,2019-6-01T03:37:20Z
2019-06-01T01:40:08Z,42.805,6.029,13.2961,4.59973,2469.704,2019-6-01T03:40:23Z
2019-06-01T01:43:11Z,42.805,6.029,13.2958,4.59964,2469.667,2019-6-01T03:43:26Z
2019-06-01T01:46:14Z,42.805,6.029,13.2957,4.59964,2469.704,2019-6-01T03:46:29Z
2019-06-01T01:49:17Z,42.805,6.029,13.2960,4.59965,2469.667,2019-6-01T03:49:32Z
2019-06-01T01:52:20Z,42.805,6.029,13.2957,4.59960,2469.667,2019-6-01T03:52:35Z
2019-06-01T01:55:23Z,42.805,6.029,13.2953,4.59966,2469.69,2019-6-01T03:55:38Z
2019-06-01T01:58:26Z,42.805,6.029,13.2961,4.59966,2469.713,2019-6-01T03:58:41Z
2019-06-01T02:01:29Z,42.805,6.029,13.2958,4.59963,2469.69,2019-6-01T04:01:44Z
2019-06-01T02:04:32Z,42.805,6.029,13.2957,4.59960,2469.667,2019-6-01T04:04:47Z
2019-06-01T02:07:35Z,42.805,6.029,13.2963,4.59963,2469.69,2019-6-01T04:07:50Z
2019-06-01T02:10:38Z,42.805,6.029,13.2957,4.59967,2469.69,2019-6-01T04:10:53Z
2019-06-01T02:13:41Z,42.805,6.029,13.2961,4.59966,2469.76,2019-6-01T04:13:56Z
2019-06-01T02:16:43Z,42.805,6.029,13.2961,4.59961,2469.69,2019-6-01T04:16:58Z
2019-06-01T02:19:46Z,42.805,6.029,13.2963,4.59966,2469.713,2019-6-01T04:20:01Z
2019-06-01T02:22:49Z,42.805,6.029,13.2958,4.59969,2469.704,2019-6-01T04:23:04Z
2019-06-01T02:25:52Z,42.805,6.029,13.2961,4.59966,2469.737,2019-6-01T04:26:07Z
2019-06-01T02:28:55Z,42.805,6.029,13.2953,4.59968,2469.69,2019-6-01T04:29:10Z
2019-06-01T02:31:58Z,42.805,6.029,13.2964,4.59966,2469.704,2019-6-01T04:32:13Z
2019-06-01T02:35:01Z,42.805,6.029,13.2958,4.59959,2469.737,2019-6-01T04:35:16Z
2019-06-01T02:38:04Z,42.805,6.029,13.2957,4.59961,2469.727,2019-6-01T04:38:19Z
2019-06-01T02:41:07Z,42.805,6.029,13.2961,4.59964,2469.713,2019-6-01T04:41:22Z
2019-06-01T02:44:10Z,42.805,6.029,13.2956,4.59966,2469.727,2019-6-01T04:44:25Z
2019-06-01T02:47:13Z,42.805,6.029,13.2960,4.59980,2469.713,2019-6-01T04:47:28Z
2019-06-01T02:50:16Z,42.805,6.029,13.2958,4.59975,2469.727,2019-6-01T04:50:31Z
2019-06-01T02:53:19Z,42.805,6.029,13.2957,4.59966,2469.76,2019-6-01T04:53:34Z
2019-06-01T02:56:22Z,42.805,6.029,13.2961,4.59973,2469.727,2019-6-01T04:56:37Z
2019-06-01T02:59:25Z,42.805,6.029,13.2967,4.59971,2469.737,2019-6-01T04:59:40Z
2019-06-01T03:02:28Z,42.805,6.029,13.2958,4.59964,2469.75,2019-6-01T05:02:43Z
2019-06-01T03:05:31Z,42.805,6.029,13.2961,4.59964,2469.737,2019-6-01T05:05:46Z
2019-06-01T03:08:33Z,42.805,6.029,13.2958,4.59960,2469.76,2019-6-01T05:08:49Z
2019-06-01T03:11:36Z,42.805,6.029,13.2961,4.59964,2469.75,2019-6-01T05:11:52Z
2019-06-01T03:14:39Z,42.805,6.029,13.2958,4.59965,2469.75,2019-6-01T05:14:54Z
2019-06-01T03:17:42Z,42.805,6.029,13.2961,4.59966,2469.76,2019-6-01T05:17:57Z
2019-06-01T03:20:45Z,42.805,6.029,13.2958,4.59967,2469.773,2019-6-01T05:21:00Z
2019-06-01T03:23:48Z,42.805,6.029,13.2962,4.59964,2469.737,2019-6-01T05:24:03Z
2019-06-01T03:26:51Z,42.805,6.029,13.2962,4.59967,2469.75,2019-6-01T05:27:06Z
2019-06-01T03:29:54Z,42.805,6.029,13.2958,4.59967,2469.75,2019-6-01T05:30:09Z
2019-06-01T03:32:57Z,42.805,6.029,13.2964,4.59973,2469.76,2019-6-01T05:33:12Z
2019-06-01T03:36:00Z,42.805,6.029,13.2968,4.59971,2469.75,2019-6-01T05:36:15Z
2019-06-01T03:39:03Z,42.805,6.029,13.2964,4.59986,2469.76,2019-6-01T05:39:18Z
2019-06-01T03:42:06Z,42.805,6.029,13.2961,4.59968,2469.797,2019-6-01T05:42:21Z
2019-06-01T03:45:09Z,42.805,6.029,13.2958,4.59968,2469.737,2019-6-01T05:45:24Z
2019-06-01T03:48:12Z,42.805,6.029,13.2960,4.59977,2469.76,2019-6-01T05:48:27Z
2019-06-01T03:51:15Z,42.805,6.029,13.2961,4.59971,2469.76,2019-6-01T05:51:30Z
2019-06-01T03:54:18Z,42.805,6.029,13.2962,4.59970,2469.797,2019-6-01T05:54:33Z
2019-06-01T03:57:21Z,42.805,6.029,13.2957,4.59964,2469.773,2019-6-01T05:57:36Z
2019-06-01T04:00:24Z,42.805,6.029,13.2959,4.59961,2469.76,2019-6-01T06:00:39Z
2019-06-01T04:03:27Z,42.805,6.029,13.2956,4.59961,2469.783,2019-6-01T06:03:42Z
2019-06-01T04:06:29Z,42.805,6.029,13.2957,4.59965,2469.797,2019-6-01T06:06:44Z
2019-06-01T04:09:32Z,42.805,6.029,13.2961,4.59964,2469.806,2019-6-01T06:09:47Z
2019-06-01T04:12:35Z,42.805,6.029,13.2959,4.59964,2469.797,2019-6-01T06:12:50Z
2019-06-01T04:15:38Z,42.805,6.029,13.2956,4.59966,2469.783,2019-6-01T06:15:53Z
2019-06-01T04:18:41Z,42.805,6.029,13.2961,4.59968,2469.783,2019-6-01T06:18:56Z
2019-06-01T04:21:44Z,42.805,6.029,13.2961,4.59974,2469.773,2019-6-01T06:21:59Z
2019-06-01T04:24:47Z,42.805,6.029,13.2957,4.59968,2469.797,2019-6-01T06:25:02Z
2019-06-01T04:27:50Z,42.805,6.029,13.2961,4.59972,2469.797,2019-6-01T06:28:05Z
2019-06-01T04:30:53Z,42.805,6.029,13.2959,4.59976,2469.737,2019-6-01T06:31:08Z
2019-06-01T04:33:56Z,42.805,6.029,13.2958,4.59966,2469.797,2019-6-01T06:34:11Z
2019-06-01T04:36:59Z,42.805,6.029,13.2961,4.59964,2469.797,2019-6-01T06:37:14Z
2019-06-01T04:40:02Z,42.805,6.029,13.2964,4.59965,2469.76,2019-6-01T06:40:17Z
2019-06-01T04:43:05Z,42.805,6.029,13.2957,4.59962,2469.806,2019-6-01T06:43:20Z
2019-06-01T04:46:08Z,42.805,6.029,13.2962,4.59968,2469.806,2019-6-01T06:46:23Z
2019-06-01T04:49:11Z,42.805,6.029,13.2958,4.59964,2469.783,2019-6-01T06:49:26Z
2019-06-01T04:52:14Z,42.805,6.029,13.2958,4.59966,2469.806,2019-6-01T06:52:29Z
2019-06-01T04:55:17Z,42.805,6.029,13.2957,4.59966,2469.821,2019-6-01T06:55:32Z
2019-06-01T04:58:19Z,42.805,6.029,13.2957,4.59962,2469.821,2019-6-01T06:58:35Z
2019-06-01T05:01:22Z,42.805,6.029,13.2957,4.59967,2469.806,2019-6-01T07:01:37Z
2019-06-01T05:04:25Z,42.805,6.029,13.2961,4.59961,2469.821,2019-6-01T07:04:40Z
2019-06-01T05:07:28Z,42.805,6.029,13.2961,4.59972,2469.806,2019-6-01T07:07:43Z
2019-06-01T05:10:31Z,42.805,6.029,13.2964,4.59974,2469.806,2019-6-01T07:10:46Z
2019-06-01T05:13:34Z,42.805,6.029,13.2961,4.59979,2469.844,2019-6-01T07:13:49Z
2019-06-01T05:16:37Z,42.805,6.029,13.2954,4.59966,2469.806,2019-6-01T07:16:52Z
2019-06-01T05:19:40Z,42.805,6.029,13.2966,4.59964,2469.806,2019-6-01T07:19:55Z
2019-06-01T05:22:43Z,42.805,6.029,13.2958,4.59970,2469.783,2019-6-01T07:22:58Z
2019-06-01T05:25:46Z,42.805,6.029,13.2964,4.59982,2469.844,2019-6-01T07:26:01Z
2019-06-01T05:28:49Z,42.805,6.029,13.2965,4.59973,2469.821,2019-6-01T07:29:04Z
2019-06-01T05:31:52Z,42.805,6.029,13.2961,4.59975,2469.806,2019-6-01T07:32:07Z
2019-06-01T05:34:55Z,42.805,6.029,13.2953,4.59961,2469.83,2019-6-01T07:35:10Z
2019-06-01T05:37:58Z,42.805,6.029,13.2958,4.59967,2469.806,2019-6-01T07:38:13Z
2019-06-01T05:41:01Z,42.805,6.029,13.2958,4.59966,2469.821,2019-6-01T07:41:16Z
2019-06-01T05:44:04Z,42.805,6.029,13.2964,4.59974,2469.797,2019-6-01T07:44:19Z
2019-06-01T05:47:07Z,42.805,6.029,13.2958,4.59965,2469.844,2019-6-01T07:47:22Z
2019-06-01T05:50:10Z,42.805,6.029,13.2958,4.59968,2469.806,2019-6-01T07:50:25Z
2019-06-01T05:53:12Z,42.805,6.029,13.2961,4.59973,2469.83,2019-6-01T07:53:28Z
2019-06-01T05:56:15Z,42.805,6.029,13.2967,4.59978,2469.83,2019-6-01T07:56:30Z
2019-06-01T05:59:18Z,42.805,6.029,13.2963,4.59979,2469.783,2019-6-01T07:59:33Z
2019-06-01T06:02:21Z,42.805,6.029,13.2954,4.59968,2469.821,2019-6-01T08:02:36Z
2019-06-01T06:05:24Z,42.805,6.029,13.2961,4.59969,2469.797,2019-6-01T08:05:39Z
2019-06-01T06:08:27Z,42.805,6.029,13.2959,4.59973,2469.806,2019-6-01T08:08:42Z
2019-06-01T06:11:30Z,42.805,6.029,13.2961,4.59978,2469.806,2019-6-01T08:11:45Z
2019-06-01T06:14:33Z,42.805,6.029,13.2964,4.59979,2469.83,2019-6-01T08:14:48Z
2019-06-01T06:17:36Z,42.805,6.029,13.2962,4.59976,2469.783,2019-6-01T08:17:51Z
2019-06-01T06:20:39Z,42.805,6.029,13.2962,4.59975,2469.783,2019-6-01T08:20:54Z
2019-06-01T06:23:42Z,42.805,6.029,13.2957,4.59966,2469.806,2019-6-01T08:23:57Z
2019-06-01T06:26:45Z,42.805,6.029,13.2959,4.59970,2469.797,2019-6-01T08:27:00Z
2019-06-01T06:29:48Z,42.805,6.029,13.2955,4.59971,2469.797,2019-6-01T08:30:03Z
2019-06-01T06:32:51Z,42.805,6.029,13.2958,4.59967,2469.783,2019-6-01T08:33:06Z
2019-06-01T06:35:54Z,42.805,6.029,13.2955,4.59968,2469.821,2019-6-01T08:36:09Z
2019-06-01T06:38:57Z,42.805,6.029,13.2958,4.59967,2469.821,2019-6-01T08:39:12Z
2019-06-01T06:42:00Z,42.805,6.029,13.2958,4.59965,2469.797,2019-6-01T08:42:15Z
2019-06-01T06:45:02Z,42.805,6.029,13.2957,4.59966,2469.783,2019-6-01T08:45:18Z
2019-06-01T06:48:05Z,42.805,6.029,13.2955,4.59967,2469.806,2019-6-01T08:48:20Z
2019-06-01T06:51:08Z,42.805,6.029,13.2957,4.59983,2469.797,2019-6-01T08:51:23Z
2019-06-01T06:54:11Z,42.805,6.029,13.2956,4.59968,2469.806,2019-6-01T08:54:26Z
2019-06-01T06:57:14Z,42.805,6.029,13.2957,4.59971,2469.783,2019-6-01T08:57:29Z
2019-06-01T07:00:17Z,42.805,6.029,13.2958,4.59979,2469.76,2019-6-01T09:00:32Z
2019-06-01T07:03:20Z,42.805,6.029,13.2961,4.59981,2469.821,2019-6-01T09:03:35Z
2019-06-01T07:06:23Z,42.805,6.029,13.2966,4.59976,2469.783,2019-6-01T09:06:38Z
2019-06-01T07:09:26Z,42.805,6.029,13.2961,4.59974,2469.797,2019-6-01T09:09:41Z
2019-06-01T07:12:29Z,42.805,6.029,13.2959,4.59973,2469.773,2019-6-01T09:12:44Z
2019-06-01T07:15:32Z,42.805,6.029,13.2957,4.59968,2469.797,2019-6-01T09:15:47Z
2019-06-01T07:18:35Z,42.805,6.029,13.2956,4.59961,2469.773,2019-6-01T09:18:50Z
2019-06-01T07:21:38Z,42.805,6.029,13.2953,4.59956,2469.773,2019-6-01T09:21:53Z
2019-06-01T07:24:41Z,42.805,6.029,13.2962,4.59976,2469.797,2019-6-01T09:24:56Z
2019-06-01T07:27:44Z,42.805,6.029,13.2963,4.59975,2469.773,2019-6-01T09:27:59Z
2019-06-01T07:30:47Z,42.805,6.029,13.2956,4.59968,2469.769,2019-6-01T09:31:02Z
2019-06-01T07:33:50Z,42.805,6.029,13.2955,4.59966,2469.797,2019-6-01T09:34:05Z
2019-06-01T07:36:53Z,42.805,6.029,13.2960,4.59973,2469.783,2019-6-01T09:37:08Z
2019-06-01T07:39:55Z,42.805,6.029,13.2958,4.59964,2469.783,2019-6-01T09:40:11Z
2019-06-01T07:42:58Z,42.805,6.029,13.2956,4.59968,2469.76,2019-6-01T09:43:13Z
2019-06-01T07:46:01Z,42.805,6.029,13.2960,4.59974,2469.76,2019-6-01T09:46:16Z
2019-06-01T07:49:04Z,42.805,6.029,13.2959,4.59971,2469.773,2019-6-01T09:49:19Z
2019-06-01T07:52:07Z,42.805,6.029,13.2959,4.59964,2469.797,2019-6-01T09:52:22Z
2019-06-01T07:55:10Z,42.805,6.029,13.2963,4.59976,2469.737,2019-6-01T09:55:25Z
2019-06-01T07:58:13Z,42.805,6.029,13.2952,4.59976,2469.737,2019-6-01T09:58:28Z
2019-06-01T08:01:16Z,42.805,6.029,13.2958,4.59968,2469.76,2019-6-01T10:01:31Z
2019-06-01T08:04:19Z,42.805,6.029,13.2954,4.59968,2469.727,2019-6-01T10:04:34Z
2019-06-01T08:07:22Z,42.805,6.029,13.2960,4.59973,2469.737,2019-6-01T10:07:37Z
2019-06-01T08:10:25Z,42.805,6.029,13.2963,4.59974,2469.737,2019-6-01T10:10:40Z
2019-06-01T08:13:28Z,42.805,6.029,13.2960,4.59971,2469.737,2019-6-01T10:13:43Z
2019-06-01T08:16:31Z,42.805,6.029,13.2959,4.59981,2469.773,2019-6-01T10:16:46Z
2019-06-01T08:19:34Z,42.805,6.029,13.2959,4.59970,2469.713,2019-6-01T10:19:49Z
2019-06-01T08:22:37Z,42.805,6.029,13.2953,4.59964,2469.773,2019-6-01T10:22:52Z
2019-06-01T08:25:40Z,42.805,6.029,13.2961,4.59964,2469.727,2019-6-01T10:25:55Z
2019-06-01T08:28:43Z,42.805,6.029,13.2958,4.59971,2469.727,2019-6-01T10:28:58Z
2019-06-01T08:31:46Z,42.805,6.029,13.2953,4.59959,2469.76,2019-6-01T10:32:01Z
2019-06-01T08:34:48Z,42.805,6.029,13.2956,4.59967,2469.737,2019-6-01T10:35:04Z
2019-06-01T08:37:51Z,42.805,6.029,13.2961,4.59970,2469.713,2019-6-01T10:38:06Z
2019-06-01T08:40:54Z,42.805,6.029,13.2957,4.59968,2469.75,2019-6-01T10:41:09Z
2019-06-01T08:43:57Z,42.805,6.029,13.2955,4.59966,2469.727,2019-6-01T10:44:12Z
2019-06-01T08:47:00Z,42.805,6.029,13.2965,4.59976,2469.741,2019-6-01T10:47:15Z
2019-06-01T08:50:03Z,42.805,6.029,13.2954,4.59969,2469.704,2019-6-01T10:50:18Z
2019-06-01T08:53:06Z,42.805,6.029,13.2956,4.59973,2469.713,2019-6-01T10:53:21Z
2019-06-01T08:56:09Z,42.805,6.029,13.2958,4.59968,2469.69,2019-6-01T10:56:24Z
2019-06-01T08:59:12Z,42.805,6.029,13.2953,4.59961,2469.727,2019-6-01T10:59:27Z
2019-06-01T09:02:15Z,42.805,6.029,13.2952,4.59972,2469.727,2019-6-01T11:02:30Z
2019-06-01T09:05:18Z,42.805,6.029,13.2964,4.59981,2469.75,2019-6-01T11:05:33Z
2019-06-01T09:08:21Z,42.805,6.029,13.2957,4.59971,2469.727,2019-6-01T11:08:36Z
2019-06-01T09:11:24Z,42.805,6.029,13.2958,4.59966,2469.727,2019-6-01T11:11:39Z
2019-06-01T09:14:27Z,42.805,6.029,13.2962,4.59968,2469.727,2019-6-01T11:14:42Z
2019-06-01T09:17:30Z,42.805,6.029,13.2955,4.59963,2469.68,2019-6-01T11:17:45Z
2019-06-01T09:20:33Z,42.805,6.029,13.2957,4.59970,2469.727,2019-6-01T11:20:48Z
2019-06-01T09:23:36Z,42.805,6.029,13.2957,4.59968,2469.68,2019-6-01T11:23:51Z
2019-06-01T09:26:39Z,42.805,6.029,13.2953,4.59964,2469.727,2019-6-01T11:26:54Z
2019-06-01T09:29:42Z,42.805,6.029,13.2960,4.59970,2469.704,2019-6-01T11:29:57Z
2019-06-01T09:32:45Z,42.805,6.029,13.2957,4.59965,2469.727,2019-6-01T11:33:00Z
2019-06-01T09:35:47Z,42.805,6.029,13.2961,4.59964,2469.727,2019-6-01T11:36:03Z
2019-06-01T09:38:50Z,42.805,6.029,13.2955,4.59966,2469.68,2019-6-01T11:39:05Z
2019-06-01T09:41:53Z,42.805,6.029,13.2958,4.59970,2469.713,2019-6-01T11:42:08Z
2019-06-01T09:44:56Z,42.805,6.029,13.2958,4.59969,2469.69,2019-6-01T11:45:11Z
2019-06-01T09:47:59Z,42.805,6.029,13.2959,4.59967,2469.704,2019-6-01T11:48:14Z
2019-06-01T09:51:02Z,42.805,6.029,13.2953,4.59964,2469.68,2019-6-01T11:51:17Z
2019-06-01T09:54:05Z,42.805,6.029,13.2958,4.59967,2469.68,2019-6-01T11:54:20Z
2019-06-01T09:57:08Z,42.805,6.029,13.2961,4.59967,2469.68,2019-6-01T11:57:23Z
2019-06-01T10:00:11Z,42.805,6.029,13.2960,4.59968,2469.68,2019-6-01T12:00:26Z
2019-06-01T10:03:14Z,42.805,6.029,13.2957,4.59969,2469.68,2019-6-01T12:03:29Z
2019-06-01T10:06:17Z,42.805,6.029,13.2955,4.59965,2469.68,2019-6-01T12:06:32Z
2019-06-01T10:09:20Z,42.805,6.029,13.2961,4.59963,2469.68,2019-6-01T12:09:35Z
2019-06-01T10:12:23Z,42.805,6.029,13.2957,4.59964,2469.667,2019-6-01T12:12:38Z
2019-06-01T10:15:26Z,42.805,6.029,13.2958,4.59967,2469.68,2019-6-01T12:15:41Z
2019-06-01T10:18:29Z,42.805,6.029,13.2957,4.59967,2469.68,2019-6-01T12:18:44Z
2019-06-01T10:21:32Z,42.805,6.029,13.2959,4.59963,2469.657,2019-6-01T12:21:47Z
2019-06-01T10:24:35Z,42.805,6.029,13.2956,4.59961,2469.68,2019-6-01T12:24:50Z
2019-06-01T10:27:38Z,42.805,6.029,13.2959,4.59969,2469.667,2019-6-01T12:27:53Z
2019-06-01T10:30:41Z,42.805,6.029,13.2964,4.59961,2469.68,2019-6-01T12:30:56Z
2019-06-01T10:33:43Z,42.805,6.029,13.2959,4.59963,2469.667,2019-6-01T12:33:59Z
2019-06-01T10:36:46Z,42.805,6.029,13.2958,4.59966,2469.634,2019-6-01T12:37:01Z
2019-06-01T10:39:49Z,42.805,6.029,13.2957,4.59966,2469.68,2019-6-01T12:40:04Z
2019-06-01T10:42:52Z,42.805,6.029,13.2954,4.59983,2469.643,2019-6-01T12:43:07Z
2019-06-01T10:45:55Z,42.805,6.029,13.2958,4.59967,2469.62,2019-6-01T12:46:10Z
2019-06-01T10:48:58Z,42.805,6.029,13.2957,4.59973,2469.62,2019-6-01T12:49:13Z
2019-06-01T10:52:01Z,42.805,6.029,13.2964,4.59976,2469.62,2019-6-01T12:52:16Z
2019-06-01T10:55:04Z,42.805,6.029,13.2958,4.59969,2469.643,2019-6-01T12:55:19Z
2019-06-01T10:58:07Z,42.805,6.029,13.2958,4.59965,2469.634,2019-6-01T12:58:22Z
2019-06-01T11:01:10Z,42.805,6.029,13.2962,4.59971,2469.657,2019-6-01T13:01:25Z
2019-06-01T11:04:13Z,42.805,6.029,13.2962,4.59963,2469.62,2019-6-01T13:04:28Z
2019-06-01T11:07:16Z,42.805,6.029,13.2960,4.59968,2469.62,2019-6-01T13:07:31Z
2019-06-01T11:10:19Z,42.805,6.029,13.2957,4.59972,2469.62,2019-6-01T13:10:34Z
2019-06-01T11:13:22Z,42.805,6.029,13.2957,4.59964,2469.62,2019-6-01T13:13:37Z
2019-06-01T11:16:25Z,42.805,6.029,13.2957,4.59957,2469.597,2019-6-01T13:16:40Z
2019-06-01T11:19:28Z,42.805,6.029,13.2956,4.59964,2469.62,2019-6-01T13:19:43Z
2019-06-01T11:22:31Z,42.805,6.029,13.2956,4.59972,2469.61,2019-6-01T13:22:46Z
2019-06-01T11:25:34Z,42.805,6.029,13.2955,4.59971,2469.634,2019-6-01T13:25:49Z
2019-06-01T11:28:37Z,42.805,6.029,13.2957,4.59976,2469.657,2019-6-01T13:28:52Z
2019-06-01T11:31:39Z,42.805,6.029,13.2957,4.59969,2469.634,2019-6-01T13:31:55Z
2019-06-01T11:34:42Z,42.805,6.029,13.2953,4.59968,2469.61,2019-6-01T13:34:57Z
2019-06-01T11:37:45Z,42.805,6.029,13.2958,4.59968,2469.62,2019-6-01T13:38:00Z
2019-06-01T11:40:48Z,42.805,6.029,13.2958,4.59969,2469.643,2019-6-01T13:41:03Z
2019-06-01T11:43:51Z,42.805,6.029,13.2958,4.59964,2469.643,2019-6-01T13:44:06Z
2019-06-01T11:46:54Z,42.805,6.029,13.2959,4.59968,2469.61,2019-6-01T13:47:09Z
2019-06-01T11:49:57Z,42.805,6.029,13.2965,4.59980,2469.62,2019-6-01T13:50:12Z
2019-06-01T11:53:00Z,42.805,6.029,13.2956,4.59963,2469.61,2019-6-01T13:53:15Z
2019-06-01T11:56:03Z,42.805,6.029,13.2958,4.59964,2469.657,2019-6-01T13:56:18Z
2019-06-01T11:59:06Z,42.805,6.029,13.2958,4.59966,2469.657,2019-6-01T13:59:21Z
2019-06-01T12:02:09Z,42.805,6.029,13.2953,4.59961,2469.634,2019-6-01T14:02:24Z
2019-06-01T12:05:12Z,42.805,6.029,13.2954,4.59967,2469.62,2019-6-01T14:05:27Z
2019-06-01T12:08:15Z,42.805,6.029,13.2957,4.59967,2469.597,2019-6-01T14:08:30Z
2019-06-01T12:11:18Z,42.805,6.029,13.2960,4.59968,2469.61,2019-6-01T14:11:33Z
2019-06-01T12:14:21Z,42.805,6.029,13.2956,4.59968,2469.643,2019-6-01T14:14:36Z
2019-06-01T12:17:24Z,42.805,6.029,13.2958,4.59964,2469.643,2019-6-01T14:17:39Z
2019-06-01T12:20:27Z,42.805,6.029,13.2960,4.59970,2469.634,2019-6-01T14:20:42Z
2019-06-01T12:23:30Z,42.805,6.029,13.2967,4.59971,2469.62,2019-6-01T14:23:45Z
2019-06-01T12:26:33Z,42.805,6.029,13.2957,4.59964,2469.62,2019-6-01T14:26:48Z
2019-06-01T12:29:35Z,42.805,6.029,13.2957,4.59961,2469.597,2019-6-01T14:29:51Z
2019-06-01T12:32:38Z,42.805,6.029,13.2961,4.59973,2469.657,2019-6-01T14:32:54Z
2019-06-01T12:35:41Z,42.805,6.029,13.2961,4.59964,2469.634,2019-6-01T14:35:56Z
2019-06-01T12:38:44Z,42.805,6.029,13.2961,4.59970,2469.657,2019-6-01T14:38:59Z
2019-06-01T12:41:47Z,42.805,6.029,13.2960,4.59967,2469.597,2019-6-01T14:42:02Z
2019-06-01T12:44:50Z,42.805,6.029,13.2961,4.59961,2469.634,2019-6-01T14:45:05Z
2019-06-01T12:47:53Z,42.805,6.029,13.2953,4.59970,2469.667,2019-6-01T14:48:08Z
2019-06-01T12:50:56Z,42.805,6.029,13.2959,4.59961,2469.587,2019-6-01T14:51:11Z
2019-06-01T12:53:59Z,42.805,6.029,13.2952,4.59961,2469.61,2019-6-01T14:54:14Z
2019-06-01T12:57:02Z,42.805,6.029,13.2954,4.59967,2469.62,2019-6-01T14:57:17Z
2019-06-01T13:00:05Z,42.805,6.029,13.2961,4.59964,2469.61,2019-6-01T15:00:20Z
2019-06-01T13:03:08Z,42.805,6.029,13.2957,4.59961,2469.62,2019-6-01T15:03:23Z
2019-06-01T13:06:11Z,42.805,6.029,13.2955,4.59962,2469.62,2019-6-01T15:06:26Z
2019-06-01T13:09:14Z,42.805,6.029,13.2959,4.59959,2469.597,2019-6-01T15:09:29Z
2019-06-01T13:12:17Z,42.805,6.029,13.2957,4.59967,2469.62,2019-6-01T15:12:32Z
2019-06-01T13:15:20Z,42.805,6.029,13.2961,4.59966,2469.643,2019-6-01T15:15:35Z
2019-06-01T13:18:23Z,42.805,6.029,13.2961,4.59967,2469.634,2019-6-01T15:18:38Z
2019-06-01T13:21:26Z,42.805,6.029,13.2953,4.59966,2469.634,2019-6-01T15:21:41Z
2019-06-01T13:24:29Z,42.805,6.029,13.2958,4.59961,2469.634,2019-6-01T15:24:44Z
2019-06-01T13:27:31Z,42.805,6.029,13.2958,4.59967,2469.61,2019-6-01T15:27:47Z
2019-06-01T13:30:34Z,42.805,6.029,13.2957,4.59966,2469.634,2019-6-01T15:30:49Z
2019-06-01T13:33:37Z,42.805,6.029,13.2961,4.59966,2469.634,2019-6-01T15:33:52Z
2019-06-01T13:36:40Z,42.805,6.029,13.2961,4.59964,2469.657,2019-6-01T15:36:55Z
2019-06-01T13:39:43Z,42.805,6.029,13.2957,4.59959,2469.62,2019-6-01T15:39:58Z
2019-06-01T13:42:46Z,42.805,6.029,13.2958,4.59966,2469.62,2019-6-01T15:43:01Z
2019-06-01T13:45:49Z,42.805,6.029,13.2960,4.59961,2469.634,2019-6-01T15:46:04Z
2019-06-01T13:48:52Z,42.805,6.029,13.2954,4.59960,2469.643,2019-6-01T15:49:07Z
2019-06-01T13:51:55Z,42.805,6.029,13.2961,4.59962,2469.634,2019-6-01T15:52:10Z
2019-06-01T13:54:58Z,42.805,6.029,13.2957,4.59964,2469.643,2019-6-01T15:55:13Z
2019-06-01T13:58:01Z,42.805,6.029,13.2962,4.59965,2469.62,2019-6-01T15:58:16Z
2019-06-01T14:01:04Z,42.805,6.029,13.2966,4.59964,2469.667,2019-6-01T16:01:19Z
2019-06-01T14:04:07Z,42.805,6.029,13.2959,4.59962,2469.667,2019-6-01T16:04:22Z
2019-06-01T14:07:10Z,42.805,6.029,13.2961,4.59964,2469.667,2019-6-01T16:07:25Z
2019-06-01T14:10:13Z,42.805,6.029,13.2961,4.59971,2469.643,2019-6-01T16:10:28Z
2019-06-01T14:13:16Z,42.805,6.029,13.2964,4.59962,2469.69,2019-6-01T16:13:31Z
2019-06-01T14:16:19Z,42.805,6.029,13.2957,4.59962,2469.643,2019-6-01T16:16:34Z
2019-06-01T14:19:22Z,42.805,6.029,13.2959,4.59961,2469.657,2019-6-01T16:19:37Z
2019-06-01T14:22:25Z,42.805,6.029,13.2955,4.59962,2469.727,2019-6-01T16:22:40Z
2019-06-01T14:25:28Z,42.805,6.029,13.2959,4.59961,2469.643,2019-6-01T16:25:43Z
2019-06-01T14:28:30Z,42.805,6.029,13.2958,4.59961,2469.68,2019-6-01T16:28:46Z
2019-06-01T14:31:33Z,42.805,6.029,13.2962,4.59966,2469.667,2019-6-01T16:31:49Z
2019-06-01T14:34:36Z,42.805,6.029,13.2959,4.59963,2469.667,2019-6-01T16:34:51Z
2019-06-01T14:37:39Z,42.805,6.029,13.2962,4.59964,2469.69,2019-6-01T16:37:54Z
2019-06-01T14:40:42Z,42.805,6.029,13.2958,4.59966,2469.667,2019-6-01T16:40:57Z
2019-06-01T14:43:45Z,42.805,6.029,13.2958,4.59960,2469.68,2019-6-01T16:44:00Z
2019-06-01T14:46:48Z,42.805,6.029,13.2961,4.59961,2469.69,2019-6-01T16:47:03Z
2019-06-01T14:49:51Z,42.805,6.029,13.2964,4.59960,2469.69,2019-6-01T16:50:06Z
2019-06-01T14:52:54Z,42.805,6.029,13.2958,4.59960,2469.69,2019-6-01T16:53:09Z
2019-06-01T14:55:57Z,42.805,6.029,13.2964,4.59961,2469.69,2019-6-01T16:56:12Z
2019-06-01T14:59:00Z,42.805,6.029,13.2958,4.59958,2469.69,2019-6-01T16:59:15Z
2019-06-01T15:02:03Z,42.805,6.029,13.2961,4.59958,2469.69,2019-6-01T17:02:18Z
2019-06-01T15:05:06Z,42.805,6.029,13.2959,4.59963,2469.727,2019-6-01T17:05:21Z
2019-06-01T15:08:09Z,42.805,6.029,13.2957,4.59963,2469.727,2019-6-01T17:08:24Z
2019-06-01T15:11:12Z,42.805,6.029,13.2959,4.59958,2469.704,2019-6-01T17:11:27Z
2019-06-01T15:14:15Z,42.805,6.029,13.2959,4.59958,2469.704,2019-6-01T17:14:30Z